Temperature
8 6 6 7 8 8 8 8 8 8 9 8 8 8 8 8 8 8 8 8 8 9 9 9 8 8 7 7 7 6 6 6 6 5 5 5 5 5 5 5 5 5 5 5
6 6 7 8 8 8 8 8 7 8 8 8 7 7 7 7 7 8 8 8 8 8 8 8 8 7 7 6 6 6 6 5 5 5 5 5 5 5 5 4 4 5 5 5
6 7 8 8 8 8 8 7 7 7 8 8 7 7 7 7 7 8 8 8 8 8 7 7 7 7 6 6 6 5 5 5 5 5 4 4 4 4 4 4 4 4 4 4
6 7 7 7 7 7 7 8 7 7 6 6 7 6 6 6 6 6 6 7 7 7 7 7 6 6 6 6 5 5 5 4 4 4 4 4 4 4 4 4 4 4 4 4
6 6 7 7 7 7 7 7 7 7 6 5 5 5 6 6 6 6 6 6 6 6 6 6 6 6 6 6 5 5 4 4 4 4 3 3 3 3 3 3 3 3 3 3
5 6 6 6 6 7 7 7 6 5 5 5 5 5 5 5 6 6 5 6 6 6 6 6 6 6 5 5 5 4 4 4 3 3 3 3 3 3 3 3 2 2 3 3
5 5 6 6 6 6 6 6 6 5 5 5 5 5 5 5 5 5 5 5 5 5 5 5 5 5 4 4 4 3 3 3 3 3 3 2 2 2 2 2 2 2 2 2
4 4 5 5 5 5 5 6 5 5 5 5 5 5 5 4 4 5 5 5 5 4 4 4 4 4 4 4 3 3 3 3 3 2 2 2 2 2 2 2 2 2 2 2
4 4 5 5 5 6 5 5 5 4 4 4 4 4 4 4 3 3 3 3 3 4 4 4 4 3 3 3 3 3 2 2 2 2 2 1 1 1 1 1 1 1 1 1
4 3 4 4 5 5 5 4 4 4 4 4 4 4 4 3 3 2 2 2 2 3 3 3 3 3 3 3 2 2 2 2 2 2 2 1 1 1 1 1 1 1 1 1
3 3 3 3 3 4 4 4 4 4 4 4 4 4 3 3 2 2 1 1 1 2 2 2 2 2 2 2 2 1 1 1 1 1 1 1 1 0 0 0 0 0 0 0
2 2 1 2 3 3 4 3 3 3 3 3 3 3 2 1 1 1 0 0 1 1 1 2 2 2 1 1 1 1 1 1 1 1 1 0 0 0 -0 -0 -0 -0 -0 -0
2 1 1 3 3 2 2 2 3 3 2 2 2 3 1 -0 -0 -1 -1 -1 -0 0 0 1 1 1 1 1 0 0 0 0 0 0 0 -0 -0 -0 -1 -1 -1 -1 -1 -1
3 1 1 2 2 2 1 2 2 2 2 1 2 2 0 -1 -1 -2 -2 -2 -1 -1 -1 -0 -0 -0 -0 -0 -0 -0 -0 -0 -0 -1 -1 -1 -1 -1 -1 -1 -2 -2 -2 -2
1 -0 0 1 1 1 1 1 1 1 1 1 1 1 1 -1 -2 -2 -2 -2 -3 -3 -2 -2 -2 -1 -1 -1 -1 -1 -1 -1 -1 -1 -1 -1 -2 -2 -2 -2 -2 -2 -2 -2
-1 -1 -0 -0 1 1 0 0 0 0 0 0 0 -0 -1 -2 -2 -3 -3 -3 -4 -3 -3 -3 -3 -2 -2 -2 -1 -1 -1 -1 -2 -2 -2 -2 -2 -2 -2 -3 -3 -3 -3 -3
-2 -2 -1 -1 -0 -0 -1 -1 -1 -1 -1 -1 -1 -1 -2 -3 -3 -4 -4 -4 -4 -4 -4 -3 -3 -3 -3 -3 -2 -2 -2 -2 -2 -2 -3 -3 -3 -3 -3 -3 -3 -4 -4 -4
-2 -2 -2 -2 -1 -1 -1 -2 -2 -2 -2 -3 -3 -3 -3 -4 -4 -4 -4 -4 -4 -4 -4 -4 -4 -3 -3 -3 -3 -3 -3 -3 -3 -3 -3 -3 -4 -4 -4 -4 -4 -4 -4 -4
-2 -2 -3 -2 -2 -2 -2 -3 -3 -3 -3 -4 -4 -4 -5 -5 -4 -5 -5 -4 -4 -4 -4 -4 -4 -4 -4 -4 -4 -4 -4 -4 -4 -4 -4 -4 -4 -4 -4 -5 -5 -5 -5 -5
-3 -3 -3 -3 -2 -2 -2 -4 -4 -3 -3 -5 -5 -5 -6 -5 -5 -6 -5 -5 -5 -5 -5 -5 -5 -5 -5 -5 -5 -4 -4 -5 -5 -5 -5 -5 -5 -5 -5 -5 -5 -6 -6 -6
-4 -4 -4 -4 -3 -4 -5 -5 -4 -3 -4 -6 -6 -6 -6 -6 -6 -6 -6 -6 -6 -6 -6 -5 -5 -5 -5 -5 -5 -5 -5 -5 -5 -5 -5 -5 -6 -6 -6 -6 -6 -6 -6 -6
-5 -5 -5 -5 -4 -4 -6 -6 -5 -6 -6 -6 -6 -6 -7 -7 -7 -7 -7 -7 -7 -7 -6 -6 -6 -6 -6 -6 -6 -6 -6 -6 -6 -6 -6 -6 -6 -6 -7 -7 -7 -7 -7 -7
-6 -6 -6 -6 -5 -6 -6 -7 -6 -7 -7 -7 -7 -7 -7 -8 -8 -8 -8 -8 -8 -8 -7 -7 -7 -7 -7 -7 -7 -7 -7 -7 -7 -7 -7 -7 -7 -7 -7 -7 -7 -7 -8 -8
-7 -7 -7 -7 -7 -7 -7 -7 -7 -7 -8 -8 -8 -8 -8 -8 -9 -9 -9 -9 -9 -8 -8 -8 -8 -8 -8 -8 -8 -8 -8 -8 -8 -7 -8 -8 -8 -8 -8 -8 -8 -8 -8 -8
-8 -8 -8 -8 -8 -8 -8 -8 -8 -8 -8 -9 -9 -9 -9 -9 -9 -9 -9 -9 -9 -9 -9 -9 -9 -9 -8 -8 -8 -8 -8 -8 -8 -8 -8 -8 -8 -9 -9 -9 -9 -9 -9 -9
-9 -9 -8 -8 -8 -9 -9 -8 -8 -9 -9 -9 -9 -9 -9 -9 -10 -10 -10 -10 -10 -10 -10 -9 -9 -9 -9 -9 -9 -9 -9 -9 -9 -9 -9 -9 -9 -9 -10 -10 -10 -10 -10 -10
Wind_Speed
1 3 8 12 12 8 7 7 8 8 5 7 11 13 11 8 9 10 10 11 11 12 10 9 10 9 10 10 10 10 10 9 8 6 6 5 4 3 2 3 5 6 7 7
1 7 10 8 8 8 8 8 8 6 4 6 9 12 10 9 9 10 11 11 11 9 7 9 9 9 10 11 11 11 10 9 9 7 5 3 4 3 2 2 4 6 6 7
8 6 5 6 7 9 10 10 8 6 3 3 3 8 8 6 5 5 7 8 9 10 11 10 10 11 10 11 11 10 10 9 8 6 5 4 3 2 2 2 2 3 6 6
5 5 5 6 8 8 11 7 7 6 3 5 5 6 7 6 5 6 7 6 7 7 8 9 10 10 11 10 10 10 9 9 8 7 7 8 6 4 4 4 3 2 5 5
5 3 4 7 8 7 6 4 6 6 6 4 4 5 7 4 6 8 7 7 7 7 8 9 10 11 10 9 9 9 9 8 8 8 8 8 6 4 3 3 3 3 2 4
5 4 3 5 4 5 3 1 0 1 2 6 8 7 7 5 8 6 6 6 6 7 7 7 8 8 8 7 8 8 8 8 8 8 8 8 8 6 6 5 5 3 2 2
5 5 3 1 1 1 2 3 0 2 3 7 5 6 7 4 4 6 7 6 5 6 6 6 7 7 8 8 8 8 9 8 7 7 7 7 7 8 8 7 6 5 3 2
3 6 4 2 4 4 5 6 5 5 5 3 2 7 5 2 1 2 3 3 3 4 6 7 7 8 8 8 8 8 9 8 7 7 7 6 6 5 5 6 6 6 4 4
3 5 2 2 2 4 4 5 4 3 1 2 5 4 4 1 2 2 1 2 2 2 4 6 6 7 7 7 8 9 8 7 7 7 6 6 6 5 5 5 4 4 3 3
2 4 4 2 0 1 2 4 3 4 3 4 4 4 4 3 3 1 0 1 1 1 2 4 5 5 6 6 6 6 7 7 6 6 6 5 6 6 5 5 5 4 4 3
0 2 4 2 4 5 3 2 3 3 3 4 4 5 2 4 3 3 2 1 1 1 2 3 3 4 4 4 4 5 5 5 5 5 5 5 5 5 5 5 5 5 4 4
0 1 4 6 4 2 4 4 4 4 4 3 3 5 3 1 1 1 1 2 2 1 1 2 3 3 3 4 4 4 5 5 6 6 5 5 4 4 5 5 5 5 5 4
1 2 2 4 2 2 0 2 3 2 2 3 4 5 3 4 5 4 3 3 3 2 3 3 2 2 2 3 3 4 5 5 5 5 5 5 4 4 4 5 4 5 5 4
1 2 5 7 5 2 4 4 3 4 4 5 7 6 4 4 4 3 3 2 2 3 3 3 3 1 1 1 2 3 4 4 5 5 5 5 4 4 4 4 4 5 5 5
2 3 5 7 7 4 6 7 5 6 7 7 6 6 5 3 2 1 1 2 3 3 3 3 2 2 2 1 1 2 3 4 4 4 4 4 4 3 3 3 3 4 4 4
1 2 3 5 5 3 5 7 7 7 6 7 6 6 3 2 2 1 1 2 2 2 3 3 3 3 2 2 1 1 2 3 4 4 4 3 4 4 3 3 3 3 3 3
2 2 1 4 4 2 6 5 5 3 2 3 6 6 1 2 2 1 1 0 1 2 3 3 3 2 2 2 0 1 2 3 4 4 4 4 4 4 3 3 3 3 3 3
4 3 2 2 1 5 5 1 0 2 1 1 1 2 2 1 2 2 2 1 2 3 3 3 3 3 3 2 2 1 2 3 3 3 3 3 3 3 3 3 3 3 2 3
3 4 2 2 2 5 4 3 2 1 3 2 1 2 3 2 3 3 4 4 3 3 3 2 2 2 2 2 2 2 2 2 3 3 3 3 3 3 3 3 3 2 2 2
2 2 2 2 3 5 3 4 4 0 3 3 2 1 2 2 1 2 4 5 4 4 3 3 3 3 3 2 2 2 2 2 1 2 2 2 3 4 4 3 3 2 2 2
1 1 3 4 4 5 3 5 2 2 4 4 3 2 1 1 2 2 3 4 4 4 4 4 3 3 3 2 2 2 2 1 0 1 1 2 2 3 3 3 3 3 2 2
3 2 2 2 3 5 4 3 1 2 3 3 3 3 1 1 2 2 3 4 4 5 5 4 4 4 4 3 2 2 1 1 1 1 1 1 1 2 2 3 3 3 3 2
2 3 2 3 3 2 1 0 2 1 2 3 3 3 1 1 2 2 3 3 4 4 4 4 3 4 4 4 3 2 2 2 2 2 1 1 1 1 2 3 3 2 3 2
2 1 1 1 2 2 2 2 4 3 3 3 3 2 1 1 1 2 2 3 3 4 4 4 4 4 4 4 4 2 1 1 1 1 1 1 2 1 1 1 2 2 2 2
3 1 0 2 3 3 2 2 3 3 4 4 4 3 2 1 1 1 2 2 3 4 4 4 4 4 4 4 4 3 2 1 1 1 1 1 1 1 1 1 1 2 2 3
1 2 2 4 3 3 3 2 1 2 3 3 3 3 3 2 1 1 1 2 2 3 4 4 4 4 4 4 4 4 2 1 1 1 1 1 1 1 1 1 1 2 1 3
Wind_Direction
180 160 209 212 210 218 211 217 236 241 224 206 227 243 242 227 216 216 211 206 204 206 199 182 175 167 163 164 166 168 166 165 158 158 158 159 166 165 152 139 144 146 146 144
87 234 231 221 220 227 235 241 247 264 236 220 238 251 246 228 218 214 207 204 202 198 184 177 171 168 169 172 173 172 171 169 169 171 169 168 160 164 161 148 146 150 151 151
210 236 230 221 223 226 238 230 233 243 279 255 247 267 247 240 222 210 205 202 200 193 186 179 176 175 173 176 177 176 177 173 170 160 145 135 117 107 142 171 175 164 162 161
241 247 234 235 229 218 243 228 223 224 218 244 201 256 254 225 230 226 221 209 201 191 184 178 176 178 180 182 178 174 173 172 170 161 165 166 172 179 195 184 179 178 169 166
248 237 223 234 234 215 228 224 225 219 213 238 212 225 269 214 228 233 222 213 202 190 182 181 181 182 180 176 174 173 170 172 172 173 175 178 182 180 163 157 162 171 169 169
252 254 227 229 241 219 202 122 93 151 168 238 211 200 263 216 222 222 216 213 204 189 181 179 177 170 170 170 169 169 170 176 177 179 182 186 185 174 166 167 173 177 174 175
295 273 249 208 225 266 145 129 283 275 230 240 193 201 245 236 226 206 203 204 198 182 175 173 169 170 171 171 172 174 175 180 181 182 187 192 191 183 182 179 180 179 182 193
259 276 240 211 199 205 210 173 184 212 228 258 207 220 246 257 251 153 156 167 159 170 176 178 179 177 179 178 177 178 181 183 182 183 189 191 186 186 191 187 184 188 193 194
232 260 290 241 235 183 185 204 186 170 218 239 242 258 298 357 46 73 104 111 145 178 178 179 178 176 177 180 183 184 183 182 183 183 182 186 184 186 186 182 179 181 181 185
191 269 281 289 298 257 176 161 134 172 202 237 256 241 236 230 236 232 164 181 217 193 178 173 174 175 179 180 182 181 180 182 181 181 182 185 185 183 179 177 178 177 178 174
136 234 292 304 206 210 164 173 184 189 197 201 246 260 244 211 207 204 223 220 216 182 183 179 176 175 168 164 169 174 178 173 173 179 178 175 180 178 177 180 182 178 175 171
250 166 263 258 264 238 187 188 168 194 228 206 221 264 355 16 42 76 43 21 10 37 58 147 152 145 148 159 169 174 176 177 178 178 174 173 172 174 176 180 179 177 174 172
148 140 311 321 312 10 275 233 206 192 176 202 210 254 5 30 34 38 39 18 16 40 48 58 89 123 149 165 173 174 173 173 170 166 165 163 165 171 176 176 173 174 171 168
85 184 207 226 243 236 267 274 238 187 215 228 227 249 308 346 5 9 14 12 26 49 51 49 44 60 108 157 172 172 170 162 156 155 160 163 170 172 172 172 171 172 171 171
98 223 247 265 268 250 256 268 249 222 223 226 247 247 271 292 273 294 17 41 57 49 40 33 29 20 21 40 103 150 154 150 149 150 154 163 162 157 152 152 162 167 173 178
97 230 270 276 270 262 285 284 261 249 245 241 258 272 297 332 41 46 40 49 39 14 9 15 17 16 7 1 21 111 134 143 144 149 152 150 145 144 149 154 156 161 170 177
189 182 242 270 296 322 280 263 230 218 224 217 246 262 319 7 355 311 268 64 6 357 355 0 360 358 353 342 31 132 136 133 139 144 147 149 147 148 155 158 158 171 173 174
177 170 199 270 356 236 246 352 229 204 254 289 304 337 351 349 335 356 36 40 11 357 349 348 350 353 357 5 25 89 112 128 137 141 147 153 150 151 152 154 164 176 178 176
175 161 183 199 235 267 292 339 1 214 278 331 310 341 356 3 26 13 13 16 360 345 338 341 347 356 4 11 22 76 101 117 133 147 157 160 158 159 159 164 170 171 167 169
70 130 175 193 211 241 273 320 319 242 262 353 350 335 348 28 353 297 344 358 5 8 5 4 8 24 20 9 28 78 90 111 141 168 171 167 167 167 169 174 173 170 170 173
107 140 203 217 227 257 304 316 350 173 275 333 337 338 11 263 254 296 348 2 9 9 4 7 17 18 5 10 39 67 75 76 120 135 141 151 163 169 166 165 165 162 162 155
183 189 208 198 217 258 343 24 112 262 332 344 349 348 1 7 10 4 11 8 10 10 7 10 15 8 5 16 48 58 35 14 52 87 110 130 154 163 152 154 160 158 158 161
193 205 207 199 218 286 356 327 313 350 343 336 339 344 30 41 5 1 9 9 11 7 1 3 10 8 9 15 33 43 356 19 60 85 101 123 128 135 149 159 164 162 164 172
300 322 180 248 281 302 331 12 18 22 7 354 0 7 24 35 8 5 5 5 4 2 358 0 9 12 5 7 13 7 356 29 77 100 102 114 121 123 133 154 166 176 186 191
275 305 251 260 284 324 341 354 350 12 24 17 10 12 17 47 7 0 359 357 355 355 358 3 7 4 356 357 360 356 8 52 76 100 113 110 109 131 136 136 188 208 213 210
258 210 219 245 245 242 276 300 345 23 357 354 6 12 18 33 19 15 7 2 358 355 359 0 2 358 350 353 354 348 351 36 101 84 88 103 112 123 121 115 9 333 290 265
Height
1472 1477 1476 1473 1473 1474 1475 1477 1477 1474 1472 1474 1474 1472 1470 1470 1471 1471 1471 1473 1474 1476 1479 1482 1484 1487 1490 1493 1495 1498 1500 1502 1504 1506 1507 1509 1511 1512 1514 1515 1517 1518 1519 1520
1475 1474 1470 1470 1471 1473 1474 1475 1475 1473 1471 1472 1472 1469 1467 1466 1466 1466 1467 1468 1470 1472 1475 1477 1480 1483 1485 1488 1491 1493 1496 1498 1500 1502 1504 1506 1508 1509 1511 1512 1514 1515 1516 1517
1471 1468 1467 1468 1469 1471 1471 1472 1472 1473 1471 1470 1472 1470 1466 1463 1463 1463 1463 1464 1465 1467 1469 1472 1475 1478 1481 1484 1486 1489 1492 1494 1497 1499 1501 1503 1505 1506 1507 1508 1510 1511 1513 1514
1469 1466 1466 1467 1466 1467 1468 1466 1467 1469 1475 1476 1473 1475 1463 1462 1461 1460 1460 1461 1461 1464 1466 1468 1471 1474 1477 1479 1483 1485 1488 1491 1493 1495 1497 1498 1499 1500 1502 1504 1506 1508 1509 1511
1467 1465 1464 1465 1463 1463 1463 1463 1465 1467 1471 1475 1473 1476 1464 1461 1460 1458 1457 1457 1458 1460 1462 1464 1467 1469 1473 1476 1479 1481 1484 1487 1489 1491 1493 1495 1496 1498 1500 1501 1503 1504 1506 1507
1465 1462 1462 1461 1461 1461 1461 1463 1466 1469 1472 1473 1467 1473 1463 1460 1454 1453 1454 1454 1455 1457 1459 1462 1464 1467 1470 1473 1475 1478 1480 1483 1485 1487 1489 1491 1493 1494 1496 1497 1499 1500 1502 1503
1466 1462 1460 1459 1461 1460 1461 1466 1471 1471 1472 1466 1462 1464 1458 1453 1450 1449 1450 1451 1452 1454 1456 1459 1461 1463 1466 1468 1471 1474 1476 1479 1481 1484 1485 1487 1489 1491 1492 1493 1495 1496 1498 1499
1470 1465 1459 1458 1459 1460 1461 1461 1468 1470 1469 1465 1463 1461 1454 1450 1448 1447 1448 1450 1451 1452 1454 1456 1458 1460 1462 1465 1467 1469 1472 1474 1477 1479 1481 1484 1486 1487 1489 1490 1492 1493 1494 1495
1469 1464 1458 1456 1456 1457 1459 1461 1461 1467 1469 1469 1464 1459 1454 1449 1448 1448 1449 1449 1449 1451 1452 1454 1456 1458 1460 1462 1464 1466 1468 1471 1473 1475 1477 1480 1482 1483 1485 1487 1489 1490 1491 1492
1467 1467 1460 1457 1456 1456 1457 1459 1464 1465 1465 1463 1459 1458 1455 1451 1450 1449 1449 1449 1449 1449 1450 1452 1454 1455 1457 1459 1461 1463 1465 1467 1469 1472 1474 1476 1478 1480 1482 1483 1484 1486 1487 1488
1465 1469 1465 1460 1458 1457 1458 1460 1460 1462 1462 1461 1462 1456 1449 1448 1447 1448 1448 1448 1448 1448 1449 1450 1451 1453 1455 1457 1458 1460 1462 1464 1466 1468 1470 1472 1474 1476 1478 1479 1481 1482 1483 1485
1466 1469 1469 1462 1457 1455 1455 1457 1460 1462 1462 1462 1460 1457 1449 1448 1448 1448 1449 1449 1448 1448 1448 1449 1450 1451 1453 1454 1456 1458 1459 1461 1463 1465 1467 1469 1471 1473 1474 1475 1477 1478 1480 1481
1466 1470 1470 1461 1460 1460 1459 1458 1458 1459 1461 1463 1462 1456 1451 1450 1449 1449 1450 1449 1449 1448 1448 1449 1449 1450 1451 1452 1454 1455 1456 1458 1460 1462 1464 1466 1467 1469 1470 1472 1473 1475 1476 1477
1463 1468 1468 1464 1458 1460 1461 1459 1458 1459 1460 1459 1455 1452 1452 1452 1451 1451 1450 1450 1449 1449 1449 1448 1449 1449 1450 1451 1452 1453 1454 1456 1457 1459 1461 1463 1464 1466 1467 1469 1470 1471 1473 1474
1464 1468 1465 1461 1458 1458 1458 1457 1456 1456 1455 1456 1452 1452 1451 1452 1452 1452 1451 1450 1449 1449 1449 1449 1449 1449 1449 1449 1450 1451 1452 1453 1455 1457 1458 1460 1461 1463 1464 1465 1467 1468 1469 1470
1465 1468 1466 1463 1457 1457 1458 1456 1454 1454 1454 1453 1452 1452 1452 1452 1451 1451 1451 1450 1450 1449 1449 1448 1448 1448 1448 1448 1449 1449 1450 1452 1453 1455 1456 1457 1459 1460 1461 1462 1464 1464 1465 1467
1466 1468 1468 1464 1460 1458 1460 1455 1453 1454 1454 1454 1453 1452 1452 1451 1451 1451 1450 1450 1449 1449 1448 1448 1447 1447 1447 1447 1448 1448 1449 1450 1451 1452 1454 1455 1456 1457 1458 1460 1461 1461 1462 1463
1465 1467 1469 1467 1464 1465 1457 1454 1453 1453 1455 1454 1453 1452 1452 1451 1451 1450 1450 1449 1449 1448 1448 1447 1447 1447 1447 1446 1447 1447 1448 1448 1449 1450 1451 1453 1454 1455 1456 1457 1458 1459 1459 1460
1461 1464 1468 1468 1466 1461 1457 1456 1456 1456 1455 1454 1453 1453 1453 1451 1450 1450 1450 1450 1449 1449 1448 1447 1447 1446 1446 1445 1445 1445 1446 1446 1447 1448 1449 1450 1451 1452 1453 1454 1455 1456 1456 1457
1462 1463 1466 1466 1465 1459 1458 1458 1455 1456 1456 1455 1453 1453 1452 1451 1453 1453 1451 1449 1448 1448 1447 1447 1446 1445 1444 1444 1444 1444 1444 1444 1445 1445 1446 1448 1449 1449 1450 1451 1452 1453 1454 1454
1467 1468 1468 1466 1465 1462 1461 1458 1455 1459 1457 1456 1454 1453 1452 1452 1453 1452 1450 1449 1448 1447 1447 1446 1445 1444 1443 1443 1442 1442 1442 1442 1442 1443 1444 1445 1446 1447 1447 1448 1449 1450 1451 1452
1468 1469 1470 1468 1466 1464 1461 1459 1460 1460 1458 1456 1454 1453 1452 1451 1451 1450 1449 1448 1447 1446 1445 1444 1443 1442 1442 1441 1441 1440 1440 1440 1440 1440 1441 1442 1443 1444 1444 1445 1446 1447 1448 1448
1468 1468 1466 1466 1466 1463 1461 1460 1459 1458 1457 1455 1454 1453 1452 1450 1450 1449 1448 1447 1446 1445 1444 1443 1442 1441 1441 1440 1440 1439 1439 1438 1438 1438 1439 1440 1441 1441 1442 1442 1443 1444 1445 1445
1466 1465 1465 1465 1463 1461 1460 1458 1458 1457 1456 1455 1454 1453 1451 1450 1449 1448 1447 1446 1445 1444 1443 1442 1441 1440 1440 1439 1439 1438 1437 1437 1436 1437 1437 1437 1438 1438 1439 1440 1441 1441 1442 1442
1467 1465 1465 1465 1462 1460 1458 1458 1457 1456 1455 1454 1453 1452 1451 1450 1448 1447 1446 1445 1445 1443 1442 1441 1440 1439 1439 1438 1437 1437 1436 1436 1435 1435 1435 1435 1436 1436 1437 1437 1438 1439 1440 1441
1465 1465 1465 1462 1460 1460 1458 1457 1456 1455 1454 1453 1452 1450 1450 1449 1448 1446 1445 1445 1444 1443 1441 1440 1439 1439 1438 1437 1436 1435 1435 1434 1434 1433 1433 1433 1434 1434 1435 1435 1436 1436 1438 1438